Content
SEND FEEDBACK

Daily
Averages
Monthly
Summary
Spain

BILBAO, SPAIN


Home > Europe > Spain
Elevation: 112 feet     Latitude: 43 18N     Longitude: 002 56W

WEATHER
 
SELECT A DAY
Number of Records: 226,544;   Date Range: 7/1/96 - 7/22/14
 
SHARE

PRINT THIS DATA

[ ← Previous Day ]
WEATHER ALMANAC - MAY 1, 2013
[ Next Day → ]
[ °C ]   °F
Weather ElementAverageHighLow
Temperature52.7 °F60.8 °F (12:30 pm)42.8 °F (5:00 am)
Dewpoint45.7 °F48.2 °F (11:00 am)41 °F (5:00 am)
Humidity77.7 %93 % (5:00 am)55 % (12:00 pm)
Barometer30.03 in30.09 in (10:30 pm)29.98 in (5:00 am)
Wind Speed4.7 mph13.8 mph (3:30 pm)
Weather ElementAverage
Visibility6.1 mi
Wind DirectionSSE (168.4 °)

Weather ElementTotal
Precipitation---
Heating Degree Days13.2 (Base 65)
Growing Degree Days1.8 (Base 50)
Averaged from 38 records on May 1, 2013
WEATHER CONDITIONS BREAKOUT
WIND DIRECTION BREAKOUT
WEATHER BY HOUR - MAY 1, 2013
[ °C ]   °F
Local TimeTemperatureDewpointHumidityBarometerVisibilityWind DirectionWind SpeedGust SpeedPrecipitationEventsConditions
5:00 AM42.8 °F41.0 °F93 %29.98 in6.2 miCalmMostly Cloudy
5:30 AM42.8 °F41.0 °F93 %29.98 in6.2 miESE (110°)4.6 mphScattered Clouds
6:00 AM42.8 °F41.0 °F93 %29.98 in6.2 miCalmScattered Clouds
6:30 AM44.6 °F41.0 °F87 %29.98 in6.2 miVariable2.3 mphScattered Clouds
7:00 AM44.6 °F41.0 °F87 %30.01 in6.2 miCalmMostly Cloudy
7:30 AM44.6 °F42.8 °F93 %30.01 in6.2 miCalmMostly Cloudy
8:00 AM44.6 °F42.8 °F93 %30.01 in6.2 miVariable1.2 mphMostly Cloudy
8:30 AM46.4 °F42.8 °F87 %30.01 in6.2 miVariable2.3 mphMostly Cloudy
9:00 AM46.4 °F42.8 °F87 %30.01 in6.2 miVariable2.3 mphScattered Clouds
9:30 AM48.2 °F44.6 °F87 %30.01 inVariable1.2 mphClear
10:00 AM51.8 °F44.6 °F76 %30.01 inVariable1.2 mphClear
10:30 AM55.4 °F46.4 °F72 %30.01 inVariable1.2 mphClear
11:00 AM59.0 °F48.2 °F67 %30.01 in6.2 miVariable2.3 mphPartly Cloudy
11:30 AM59.0 °F46.4 °F63 %30.01 in6.2 miCalmPartly Cloudy
12:00 PM59.0 °F42.8 °F55 %30.01 in6.2 miWSW (250°)4.6 mphPartly Cloudy
12:30 PM60.8 °F44.6 °F55 %30.01 in6.2 miVariable1.2 mphScattered Clouds
1:00 PM60.8 °F46.4 °F59 %30.01 in6.2 miVariable3.5 mphScattered Clouds
1:30 PM57.2 °F46.4 °F67 %30.01 in6.2 miNNW (330°)11.5 mphScattered Clouds
2:00 PM57.2 °F48.2 °F72 %30.01 in6.2 miNW (310°)10.4 mphScattered Clouds
2:30 PM59.0 °F48.2 °F67 %30.01 in6.2 miNW (320°)9.2 mphScattered Clouds
3:00 PM57.2 °F48.2 °F72 %30.04 in6.2 miNW (320°)12.7 mphMostly Cloudy
3:30 PM55.4 °F48.2 °F77 %30.04 in5.6 miNW (320°)13.8 mphRainLight Rain
4:00 PM55.4 °F46.4 °F72 %30.04 in5.6 miNNW (340°)9.2 mphRainLight Rain
4:30 PM55.4 °F48.2 °F77 %30.04 in5.6 miNNW (330°)11.5 mphRainLight Rain
5:00 PM55.4 °F48.2 °F77 %30.04 in6.2 miWNW (300°)8.1 mphMostly Cloudy
5:30 PM55.4 °F46.4 °F72 %30.04 in6.2 miNW (310°)4.6 mphRainLight Rain
6:00 PM55.4 °F48.2 °F77 %30.04 in6.2 miNNW (330°)5.8 mphMostly Cloudy
6:30 PM55.4 °F48.2 °F77 %30.06 in6.2 miVariable2.3 mphRainLight Rain
7:00 PM53.6 °F48.2 °F82 %30.06 in6.2 miNNW (330°)3.5 mphMostly Cloudy
7:30 PM53.6 °F48.2 °F82 %30.04 in6.2 miVariable2.3 mphMostly Cloudy
8:00 PM55.4 °F48.2 °F77 %30.06 in6.2 miNW (310°)3.5 mphScattered Clouds
8:30 PM53.6 °F48.2 °F82 %30.06 in6.2 miNNW (330°)4.6 mphMostly Cloudy
9:00 PM53.6 °F46.4 °F77 %30.06 in6.2 miNNW (330°)4.6 mphMostly Cloudy
9:30 PM53.6 °F48.2 °F82 %30.06 in6.2 miNW (320°)4.6 mphMostly Cloudy
10:00 PM53.6 °F46.4 °F77 %30.06 in6.2 miWNW (300°)6.9 mphMostly Cloudy
10:30 PM53.6 °F44.6 °F72 %30.09 in6.2 miWNW (290°)5.8 mphMostly Cloudy
11:00 PM51.8 °F46.4 °F82 %30.09 in6.2 miNW (310°)8.1 mphMostly Cloudy
11:30 PM50.0 °F46.4 °F87 %30.09 in5.0 miNW (310°)9.2 mphRainLight Rain
Hourly data recorded from LEBB, located miles away from Bilbao, Spain







STORIES FROM OUR PARTNERS